User: anonymous   Login
Location: Pl�tzky
(52.0521°N, 11.8020°E)
Time: 10:25:46
(UTC+00:00)
Language:

N. Korean satellite - Orbit

View from above orbital plane
View from above orbital plane
View from above satellite
View from above satellite

Ground track
Ground track

The orbit data is extracted from the following two-line orbital elements,

1 39026U 12072A   21066.91435033  .00003080  00000-0  10753-3 0  9995
2 39026  97.2401  62.3136 0037052  29.0188 331.3101 15.29692244457508
Epoch (UTC): 07 March 2021 21:56:39
Eccentricity: 0.0037052
inclination: 97.2401°
perigee height: 451 km
apogee height: 502 km
right ascension of ascending node: 62.3136°
argument of perigee: 29.0188°
revolutions per day: 15.29692244
mean anomaly at epoch: 331.3101°
orbit number at epoch: 45750

The dashed part of the orbit path shows where the satellite is in the earth's shadow,  

DLR